Location: Coed Ely
(51.5661°N, 3.4150°W)
Time: 00:39:24
(UTC+00:00)

CZ-4C R/B - Pass Details

Date: 28 January 2021
Orbit: 617 x 1385 km, 63.4° (Epoch: 28 February)

Event Time Altitude Azimuth Distance (km) Brightness Sun altitude
Rises 19:48:04 0° 305° (NW) 3,532 6.3 -26.6°
Reaches altitude 10° 19:50:38 10° 314° (NW) 2,703 5.4 -27.0°
Maximum altitude 19:56:34 37° 21° (NNE) 1,652 3.5 -27.9°
Enters shadow 19:56:59 36° 28° (NNE) 1,672 3.5 -27.9°
